When you browse on this site, cookies collect data to enhance your experience and personalize the content and advertising you see.
Visit our Privacy Policy to learn more. By continuing to use the site, you agree to this use of cookies and data.
  • In Hungary
  • List of Countries
  • For 7 days
  • Water Temperature
  • Satellite Maps
  • Weather Map
  • News
  • Weather Widgets
  • user-avatar
    Login

    Hourly Weather Korfu

    Today, 20 November, Tuesday

    Time Temperature Precipitation Wind Pressure Humidity
    00:00 +13°C° 1 mm 9 mps 756 mmHg 83%
    01:00 +13°C° 1 mm 9 mps 756 mmHg 85%
    02:00 +13°C° 2 mm 10 mps 755 mmHg 87%
    03:00 +13°C° 2 mm 10 mps 755 mmHg 88%
    04:00 +14°C° 2 mm 10 mps 755 mmHg 89%
    05:00 +14°C° 2.7 mm 10 mps 755 mmHg 89%
    06:00 +14°C° 2.7 mm 11 mps 755 mmHg 90%
    07:00 +14°C° 2.7 mm 11 mps 755 mmHg 90%
    08:00 +14°C° 3 mm 11 mps 756 mmHg 89%
    09:00 +14°C° 3 mm 11 mps 756 mmHg 88%
    10:00 +16°C° 3 mm 11 mps 756 mmHg 88%
    11:00 +16°C° 1.6 mm 11 mps 755 mmHg 87%
    12:00 +16°C° 1.6 mm 10 mps 755 mmHg 87%
    13:00 +16°C° 1.6 mm 10 mps 755 mmHg 86%
    14:00 +16°C° 1.9 mm 10 mps 755 mmHg 88%
    15:00 +16°C° 1.9 mm 10 mps 754 mmHg 90%
    16:00 +16°C° 1.9 mm 9 mps 754 mmHg 92%
    17:00 +16°C° 1.2 mm 9 mps 754 mmHg 92%
    18:00 +16°C° 1.2 mm 9 mps 754 mmHg 92%
    19:00 +16°C° 1.2 mm 8 mps 754 mmHg 92%
    20:00 +16°C° 2 mm 8 mps 754 mmHg 92%
    21:00 +15°C° 2 mm 8 mps 755 mmHg 92%
    22:00 +15°C° 2 mm 8 mps 755 mmHg 92%
    23:00 +15°C° 3.4 mm 7 mps 755 mmHg 93%

    Tomorrow, 21 November, Wednesday

    Time Temperature Precipitation Wind Pressure Humidity
    00:00 +15°C° 3.4 mm 7 mps 754 mmHg 93%
    01:00 +15°C° 3.4 mm 6 mps 754 mmHg 93%
    02:00 +15°C° 1.4 mm 6 mps 754 mmHg 93%
    03:00 +15°C° 1.4 mm 5 mps 754 mmHg 93%
    04:00 +15°C° 1.4 mm 5 mps 754 mmHg 93%
    05:00 +14°C° 0.6 mm 4 mps 754 mmHg 93%
    06:00 +14°C° 0.6 mm 4 mps 754 mmHg 93%
    07:00 +14°C° 0.6 mm 3 mps 755 mmHg 94%
    08:00 +16°C° 0.2 mm 3 mps 755 mmHg 89%
    09:00 +17°C° 0.2 mm 3 mps 755 mmHg 84%
    10:00 +18°C° 0.2 mm 4 mps 756 mmHg 79%
    11:00 +18°C° 0.2 mm 4 mps 756 mmHg 77%
    12:00 +17°C° 0.2 mm 5 mps 756 mmHg 76%
    13:00 +17°C° 0.2 mm 5 mps 756 mmHg 75%
    14:00 +17°C° 0.1 mm 5 mps 756 mmHg 78%
    15:00 +16°C° 0.1 mm 5 mps 756 mmHg 80%
    16:00 +15°C° 0.1 mm 5 mps 757 mmHg 83%
    17:00 +15°C° 0 mm 4 mps 757 mmHg 84%
    18:00 +15°C° 0 mm 4 mps 758 mmHg 86%
    19:00 +14°C° 0 mm 4 mps 758 mmHg 88%
    20:00 +14°C° 0 mm 4 mps 758 mmHg 88%
    21:00 +14°C° 0 mm 3 mps 759 mmHg 89%
    22:00 +13°C° 0 mm 3 mps 759 mmHg 89%
    23:00 +13°C° 0 mm 3 mps 759 mmHg 89%

    Day after tomorrow, 22 November, Thursday

    Time Temperature Precipitation Wind Pressure Humidity
    00:00 +14°C° 0 mm 3 mps 759 mmHg 89%
    01:00 +14°C° 0 mm 3 mps 759 mmHg 89%
    02:00 +14°C° 0 mm 3 mps 759 mmHg 89%
    03:00 +13°C° 0 mm 3 mps 759 mmHg 89%
    04:00 +13°C° 0 mm 3 mps 759 mmHg 89%
    05:00 +14°C° 0 mm 2 mps 759 mmHg 89%
    06:00 +14°C° 0 mm 2 mps 760 mmHg 89%
    07:00 +14°C° 0 mm 2 mps 760 mmHg 89%
    08:00 +15°C° 0 mm 2 mps 760 mmHg 84%
    09:00 +16°C° 0 mm 2 mps 760 mmHg 79%
    10:00 +18°C° 0 mm 2 mps 760 mmHg 74%
    11:00 +18°C° 0 mm 3 mps 760 mmHg 72%
    12:00 +19°C° 0 mm 3 mps 760 mmHg 70%
    13:00 +19°C° 0 mm 3 mps 760 mmHg 68%
    14:00 +18°C° 0 mm 3 mps 760 mmHg 72%
    15:00 +18°C° 0 mm 4 mps 760 mmHg 75%
    16:00 +17°C° 0 mm 4 mps 760 mmHg 79%
    17:00 +15°C° 0 mm 4 mps 760 mmHg 81%
    18:00 +15°C° 0 mm 4 mps 761 mmHg 83%
    19:00 +14°C° 0 mm 4 mps 761 mmHg 86%
    20:00 +14°C° 0 mm 4 mps 761 mmHg 86%
    21:00 +13°C° 0 mm 4 mps 762 mmHg 86%
    22:00 +13°C° 0 mm 4 mps 762 mmHg 86%
    23:00 +13°C° 0 mm 4 mps 762 mmHg 86%

    23 November, Friday

    Time Temperature Precipitation Wind Pressure Humidity
    00:00 +13°C° 0 mm 4 mps 762 mmHg 85%
    01:00 +12°C° 0 mm 4 mps 762 mmHg 85%
    02:00 +12°C° 0 mm 4 mps 762 mmHg 85%
    03:00 +12°C° 0 mm 4 mps 762 mmHg 84%
    04:00 +12°C° 0 mm 4 mps 762 mmHg 84%
    05:00 +12°C° 0 mm 4 mps 763 mmHg 83%
    06:00 +12°C° 0 mm 4 mps 763 mmHg 82%
    07:00 +12°C° 0 mm 4 mps 763 mmHg 81%
    08:00 +13°C° 0 mm 4 mps 764 mmHg 74%
    09:00 +16°C° 0 mm 3 mps 764 mmHg 67%
    10:00 +18°C° 0 mm 3 mps 764 mmHg 60%
    11:00 +18°C° 0 mm 3 mps 764 mmHg 57%
    12:00 +19°C° 0 mm 4 mps 764 mmHg 54%
    13:00 +19°C° 0 mm 4 mps 764 mmHg 51%
    14:00 +19°C° 0 mm 4 mps 764 mmHg 55%
    15:00 +18°C° 0 mm 4 mps 764 mmHg 60%
    16:00 +17°C° 0 mm 4 mps 764 mmHg 64%
    17:00 +15°C° 0 mm 4 mps 764 mmHg 66%
    18:00 +14°C° 0 mm 4 mps 764 mmHg 68%
    19:00 +13°C° 0 mm 4 mps 765 mmHg 70%
    20:00 +13°C° 0 mm 4 mps 765 mmHg 71%
    21:00 +13°C° 0 mm 4 mps 765 mmHg 73%
    22:00 +12°C° 0 mm 3 mps 765 mmHg 74%
    23:00 +12°C° 0 mm 3 mps 765 mmHg 75%

    24 November, Saturday

    Time Temperature Precipitation Wind Pressure Humidity
    00:00 +12°C° 0 mm 3 mps 765 mmHg 75%
    01:00 +11°C° 0 mm 3 mps 765 mmHg 76%
    02:00 +11°C° 0 mm 3 mps 765 mmHg 76%
    03:00 +11°C° 0 mm 3 mps 765 mmHg 77%
    04:00 +11°C° 0 mm 3 mps 764 mmHg 77%
    05:00 +10°C° 0 mm 3 mps 764 mmHg 77%
    06:00 +10°C° 0 mm 3 mps 764 mmHg 77%
    07:00 +10°C° 0 mm 3 mps 764 mmHg 77%
    08:00 +13°C° 0 mm 2 mps 765 mmHg 71%
    09:00 +15°C° 0 mm 2 mps 765 mmHg 65%
    10:00 +16°C° 0 mm 2 mps 765 mmHg 60%
    11:00 +17°C° 0 mm 2 mps 764 mmHg 59%
    12:00 +17°C° 0 mm 2 mps 764 mmHg 58%
    13:00 +18°C° 0 mm 2 mps 763 mmHg 57%
    14:00 +17°C° 0 mm 2 mps 763 mmHg 62%
    15:00 +16°C° 0 mm 2 mps 763 mmHg 67%
    16:00 +16°C° 0 mm 2 mps 763 mmHg 72%
    17:00 +15°C° 0 mm 2 mps 763 mmHg 76%
    18:00 +13°C° 0 mm 3 mps 763 mmHg 79%
    19:00 +13°C° 0 mm 3 mps 763 mmHg 82%
    20:00 +12°C° 0 mm 3 mps 763 mmHg 83%
    21:00 +12°C° 0 mm 3 mps 763 mmHg 83%
    22:00 +12°C° 0 mm 3 mps 763 mmHg 83%
    23:00 +12°C° 0 mm 3 mps 763 mmHg 83%

    25 November, Sunday

    Time Temperature Precipitation Wind Pressure Humidity
    00:00 +11°C° 0 mm 4 mps 763 mmHg 83%
    01:00 +11°C° 0 mm 4 mps 762 mmHg 83%
    02:00 +11°C° 0 mm 4 mps 762 mmHg 82%
    03:00 +11°C° 0 mm 4 mps 762 mmHg 81%
    04:00 +11°C° 0 mm 4 mps 761 mmHg 81%
    05:00 +10°C° 0 mm 5 mps 761 mmHg 81%
    06:00 +10°C° 0 mm 5 mps 761 mmHg 82%
    07:00 +10°C° 0 mm 6 mps 761 mmHg 82%
    08:00 +13°C° 0.1 mm 6 mps 761 mmHg 80%
    09:00 +14°C° 0.1 mm 6 mps 761 mmHg 77%
    10:00 +16°C° 0.1 mm 6 mps 761 mmHg 75%
    11:00 +16°C° 0.2 mm 6 mps 761 mmHg 77%
    12:00 +16°C° 0.2 mm 6 mps 760 mmHg 79%
    13:00 +16°C° 0.2 mm 6 mps 760 mmHg 81%
    14:00 +16°C° 0.7 mm 6 mps 759 mmHg 84%
    15:00 +15°C° 0.7 mm 6 mps 759 mmHg 88%
    16:00 +15°C° 0.7 mm 5 mps 759 mmHg 91%
    17:00 +15°C° 0.7 mm 5 mps 759 mmHg 92%
    18:00 +14°C° 0.7 mm 5 mps 758 mmHg 93%
    19:00 +14°C° 0.7 mm 5 mps 758 mmHg 93%
    20:00 +14°C° 0.3 mm 5 mps 758 mmHg 94%
    21:00 +14°C° 0.3 mm 6 mps 758 mmHg 94%
    22:00 +15°C° 0.3 mm 6 mps 757 mmHg 94%
    23:00 +15°C° 0.5 mm 5 mps 757 mmHg 95%
    Show more